Johnstown, PA

6:49 PM EDT on March 25, 2017 (GMT -0400)
Johnstown-Cambria County

Weather History for KJST - October, 2012

Change the Weather History Date:

Thursday, October 25, 2012

  Actual Average Record
Temperature  
Mean Temperature 64 °F 47 °F  
Max Temperature 73 °F 55 °F 86 °F (1963)
Min Temperature 55 °F 40 °F 23 °F (1969)
Degree Days  
Heating Degree Days 1 18  
Month to date heating degree days 364  
Since 1 July heating degree days 582  
Cooling Degree Days 0 0  
Month to date cooling degree days 0  
Year to date cooling degree days 382  
Growing Degree Days 14 (Base 50)    
Moisture  
Dew Point 50 °F    
Average Humidity 67    
Maximum Humidity 94    
Minimum Humidity 41    
Precipitation  
Precipitation 0.00 in 0.09 in 2.00 in (1980)
Month to date precipitation 2.51  
Year to date precipitation 26.80  
Sea Level Pressure  
Sea Level Pressure 30.13 in    
Wind  
Wind Speed 6 mph (SSE)    
Max Wind Speed 13 mph    
Max Gust Speed 21 mph    
Visibility 9 miles    
Events      
T = Trace of Precipitation, MM = Missing Value Source: NWS Daily Summary

Daily Weather History Graph

Daily Weather History Graph

Search for Another Location

Airport or City:

Trip Planner

Search our weather history database for the weather conditions in past years. The results will help you decide how hot, cold, wet, or windy it might be!

Date:

Astronomy

Oct. 25, 2012 Rise Set
Actual Time 7:37 AM EDT 6:20 PM EDT
Civil Twilight 7:09 AM EDT 6:48 PM EDT
Nautical Twilight 6:37 AM EDT 7:20 PM EDT
Astronomical Twilight 6:06 AM EDT 7:51 PM EDT
Moon 4:06 PM EDT 3:31 AM EDT
Length of Visible Light 11h 38m
Length of Day
10h 42m
Waxing Gibbous, 84% of the Moon is Illuminated
Oct 25
Waxing Gibbous
Oct 29
Full
Nov 6
Last Quarter
Nov 13
New
Nov 20
First Quarter

Hourly Weather History & Observations

Time (EDT) Temp. Dew Point Humidity Pressure Visibility Wind Dir Wind Speed Gust Speed Precip Events Conditions
12:54 AM 57.9 °F 48.0 °F 70% 30.15 in 10.0 mi SW 3.5 mph - N/A   Overcast
1:54 AM 61.0 °F 46.9 °F 60% 30.14 in 10.0 mi SSW 5.8 mph - N/A   Overcast
2:54 AM 59.0 °F 46.9 °F 64% 30.14 in 10.0 mi SSW 4.6 mph - N/A   Clear
3:54 AM 59.0 °F 46.9 °F 64% 30.13 in 10.0 mi Calm Calm - N/A   Overcast
4:54 AM 59.0 °F 46.0 °F 62% 30.13 in 10.0 mi SW 3.5 mph - N/A   Clear
5:54 AM 57.9 °F 46.0 °F 65% 30.14 in 10.0 mi Calm Calm - N/A   Clear
6:54 AM 57.9 °F 46.0 °F 65% 30.15 in 10.0 mi Calm Calm - N/A   Clear
7:54 AM 55.9 °F 46.0 °F 69% 30.16 in 10.0 mi SSW 4.6 mph - N/A   Clear
8:54 AM 60.1 °F 48.0 °F 64% 30.17 in 10.0 mi South 4.6 mph - N/A   Clear
9:54 AM 62.1 °F 48.9 °F 62% 30.17 in 10.0 mi South 4.6 mph - N/A   Clear
10:54 AM 68.0 °F 50.0 °F 52% 30.16 in 10.0 mi SSE 11.5 mph 16.1 mph N/A   Clear
11:54 AM 71.1 °F 50.0 °F 47% 30.14 in 10.0 mi SSE 11.5 mph - N/A   Clear
12:54 PM 73.0 °F 50.0 °F 44% 30.13 in 10.0 mi SSE 6.9 mph - N/A   Clear
1:54 PM 73.0 °F 50.0 °F 44% 30.11 in 10.0 mi SSE 10.4 mph - N/A   Clear
2:54 PM 73.9 °F 48.9 °F 41% 30.10 in 10.0 mi SSE 11.5 mph - N/A   Clear
3:54 PM 73.0 °F 48.0 °F 41% 30.09 in 10.0 mi SE 12.7 mph 19.6 mph N/A   Clear
4:54 PM 70.0 °F 53.1 °F 55% 30.09 in 10.0 mi SE 6.9 mph - N/A   Clear
5:54 PM 66.0 °F 53.1 °F 63% 30.10 in 10.0 mi SE 8.1 mph 16.1 mph N/A   Clear
6:54 PM 61.0 °F 53.1 °F 75% 30.12 in 10.0 mi SE 10.4 mph - N/A   Clear
7:54 PM 59.0 °F 53.1 °F 81% 30.14 in 9.0 mi SE 6.9 mph - N/A   Clear
8:54 PM 57.0 °F 53.1 °F 87% 30.14 in 5.0 mi SE 8.1 mph - N/A   Clear
9:03 PM 55.4 °F 53.6 °F 94% 30.15 in 5.0 mi SE 6.9 mph - N/A   Partly Cloudy
9:54 PM 55.9 °F 53.1 °F 90% 30.13 in 4.0 mi SSE 9.2 mph 17.3 mph N/A   Scattered Clouds
10:13 PM 55.4 °F 53.6 °F 94% 30.15 in 4.0 mi SSE 12.7 mph - N/A   Mostly Cloudy
10:54 PM 57.0 °F 54.0 °F 89% 30.12 in 5.0 mi South 9.2 mph 20.7 mph N/A   Overcast
11:54 PM 57.0 °F 54.0 °F 89% 30.12 in 5.0 mi SSE 11.5 mph 18.4 mph N/A   Overcast